FW4460 Weather Reports


time (UTC)temp
C
wind
direction
speed
KPH
gust
KPH
rain 1hr
cm
rain 24hr
cm
rain mn
cm
humidity
%
barometer
mb
20260906052503 24 76 16.1 24.1 0.00 0.99 0.00 86 1010.5
20260906052004 24 67 14.5 24.1 0.00 0.99 0.00 87 1010.5
20260906051503 24 72 16.1 29.0 0.00 0.99 0.00 88 1010.6
20260906051004 24 57 14.5 20.9 0.00 0.99 0.00 91 1010.7
20260906050003 23 47 9.7 19.3 0.00 0.99 0.00 92 1010.8
20260906045503 23 45 9.7 16.1 0.00 0.99 0.99 92 1010.7
20260906045003 22 65 6.4 9.7 0.00 0.99 0.99 94 1010.4
20260906044003 22 76 1.6 3.2 0.00 0.99 0.99 94 1010.2
20260906043003 22 65 0.0 0.0 0.00 0.99 0.99 95 1010.2
20260906042504 22 70 0.0 0.0 0.00 0.99 0.99 95 1010.2
20260906041503 22 70 0.0 0.0 0.00 0.99 0.99 95 1010.2
20260906041003 22 70 0.0 0.0 0.00 0.99 0.99 95 1010.3
20260906035504 22 99 0.0 0.0 0.00 0.99 0.99 95 1010.4
20260906035004 22 99 0.0 0.0 0.00 0.99 0.99 96 1010.4
20260906034503 22 99 0.0 0.0 0.00 0.99 0.99 95 1010.4
20260906034003 22 99 0.0 0.0 0.00 0.99 0.99 95 1010.3
20260906033003 22 99 0.0 0.0 0.00 0.99 0.99 95 1010.4
20260906032003 22 99 0.0 0.0 0.00 0.99 0.99 96 1010.4
20260906031504 22 99 0.0 0.0 0.00 0.99 0.99 96 1010.3
20260906031003 22 99 0.0 0.0 0.00 0.99 0.99 96 1010.2
20260906030503 22 99 0.0 0.0 0.00 0.99 0.99 95 1010.1
20260906030003 22 99 0.0 0.0 0.00 0.99 0.99 95 1010.0
20260906025503 22 99 0.0 0.0 0.00 0.99 0.99 96 1010.0
20260906025003 22 99 0.0 0.0 0.00 0.99 0.99 96 1010.1
20260906024504 22 99 0.0 0.0 0.00 0.99 0.99 96 1009.9
20260906024003 22 99 0.0 0.0 0.00 0.99 0.99 95 1009.8
20260906023503 22 99 0.0 0.0 0.00 0.99 0.99 95 1009.8
20260906023004 22 99 0.0 0.0 0.00 0.99 0.99 95 1009.7
20260906022503 22 99 0.0 0.0 0.00 0.99 0.99 95 1009.7
20260906022003 22 99 0.0 0.0 0.00 0.99 0.99 95 1009.6
20260906021503 22 99 0.0 0.0 0.00 0.99 0.99 95 1009.6
20260906021003 22 99 0.0 0.0 0.00 0.99 0.99 95 1009.4
20260906020503 22 99 0.0 0.0 0.00 0.99 0.99 95 1009.3
20260906020003 22 99 0.0 0.0 0.00 0.99 0.99 95 1009.3
20260906015503 22 99 0.0 0.0 0.00 0.99 0.99 95 1009.2
20260906015004 22 99 0.0 0.0 0.00 0.99 0.99 95 1009.1
20260906014003 22 99 0.0 0.0 0.00 0.99 0.99 94 1009.2
20260906013503 22 99 0.0 0.0 0.00 0.99 0.99 94 1009.1
20260906013003 23 99 0.0 0.0 0.00 0.99 0.99 93 1009.0
20260906012503 23 99 0.0 0.0 0.00 0.99 0.99 93 1009.2
20260906012003 23 84 0.0 0.0 0.00 0.99 0.99 92 1009.2
20260906011504 23 82 0.0 0.0 0.00 0.99 0.99 92 1009.2
20260906011003 23 82 0.0 0.0 0.00 0.99 0.99 92 1009.2
20260906010503 23 76 0.0 1.6 0.00 0.99 0.99 92 1009.2
20260906005503 23 147 0.0 0.0 0.00 0.99 0.99 94 1009.0
20260906005003 23 147 0.0 0.0 0.00 0.99 0.99 93 1009.0
20260906004504 23 147 0.0 0.0 0.00 0.99 0.99 93 1009.1
20260906004003 23 147 0.0 1.6 0.00 0.99 0.99 93 1009.0
20260906003504 23 123 0.0 1.6 0.00 0.99 0.99 92 1009.2
20260906003003 23 92 1.6 1.6 0.00 0.99 0.99 92 1009.1
20260906002503 23 91 1.6 3.2 0.00 0.99 0.99 92 1009.1
20260906001503 23 70 0.0 0.0 0.00 0.99 0.99 91 1009.0
20260906001004 23 70 0.0 3.2 0.00 0.99 0.99 91 1009.0
20260906000503 23 37 0.0 1.6 0.00 0.99 0.99 91 1009.0
20260906000003 23 38 0.0 1.6 0.00 0.99 0.99 91 1008.6
20260905235504 23 92 1.6 1.6 0.00 0.99 0.99 92 1008.6
20260905235004 23 102 0.0 0.0 0.00 0.99 0.99 92 1008.7
20260905234503 23 102 0.0 3.2 0.00 0.99 0.99 91 1008.8
20260905234003 23 123 0.0 3.2 0.00 0.99 0.99 91 1008.8
20260905233503 23 134 0.0 3.2 0.03 0.99 0.99 90 1008.8
20260905233003 23 154 0.0 3.2 0.10 0.99 0.99 91 1009.1
20260905232503 23 153 0.0 3.2 0.25 0.99 0.99 91 1009.2
20260905232004 23 123 0.0 3.2 0.43 0.99 0.99 92 1009.4
20260905231503 23 133 0.0 1.6 0.53 0.99 0.99 92 1009.3
20260905231003 23 140 1.6 3.2 0.71 0.99 0.99 91 1009.3
20260905230503 23 138 1.6 8.0 0.91 0.99 0.99 89 1009.2
20260905230004 23 137 3.2 9.7 0.94 0.99 0.99 87 1009.5
20260905225004 23 9 3.2 12.9 0.99 0.99 0.99 87 1009.6
20260905224503 23 120 4.8 12.9 0.99 0.99 0.99 87 1009.3
20260905224004 23 131 4.8 20.9 0.99 0.99 0.99 88 1009.6
20260905223503 23 80 19.3 29.0 0.97 0.97 0.97 87 1009.8
20260905222504 24 242 9.7 20.9 0.74 0.74 0.74 78 1009.5
20260905221503 26 282 16.1 45.1 0.46 0.46 0.46 78 1009.4
20260905221003 28 5 19.3 45.1 0.28 0.28 0.28 73 1008.9
20260905220504 31 359 4.8 11.3 0.08 0.08 0.08 70 1008.6
20260905220004 33 30 8.0 19.3 0.05 0.05 0.05 62 1008.3
20260905215003 36 148 0.0 1.6 0.00 0.00 0.00 54 1008.2
20260905214503 36 135 0.0 1.6 0.00 0.00 0.00 55 1008.2
20260905214004 36 82 1.6 3.2 0.00 0.00 0.00 53 1008.3
20260905213503 36 93 0.0 3.2 0.00 0.00 0.00 51 1008.2
20260905213004 36 98 0.0 1.6 0.00 0.00 0.00 52 1008.3
20260905212504 36 83 1.6 3.2 0.00 0.00 0.00 52 1008.4
20260905212004 36 137 0.0 1.6 0.00 0.00 0.00 54 1008.4
20260905211504 36 96 1.6 3.2 0.00 0.00 0.00 50 1008.4
20260905211004 36 115 3.2 4.8 0.00 0.00 0.00 53 1008.4
20260905205503 36 154 0.0 1.6 0.00 0.00 0.00 54 1008.4
20260905205003 36 176 0.0 4.8 0.00 0.00 0.00 51 1008.4
20260905204503 36 90 1.6 3.2 0.00 0.00 0.00 51 1008.5
20260905204003 35 5 1.6 3.2 0.00 0.00 0.00 52 1008.5
20260905203503 35 90 1.6 8.0 0.00 0.00 0.00 52 1008.5
20260905203003 35 70 4.8 9.7 0.00 0.00 0.00 53 1008.7
20260905202503 35 24 3.2 4.8 0.00 0.00 0.00 53 1008.8
20260905201504 35 305 1.6 3.2 0.00 0.00 0.00 54 1009.0
20260905201004 34 309 1.6 4.8 0.00 0.00 0.00 57 1009.0
20260905200504 34 298 1.6 4.8 0.00 0.00 0.00 57 1009.2
20260905200004 34 38 1.6 3.2 0.00 0.00 0.00 57 1009.3
20260905195504 35 0 1.6 3.2 0.00 0.00 0.00 54 1009.3
20260905195004 35 34 1.6 4.8 0.00 0.00 0.00 54 1009.4
20260905194504 35 352 1.6 9.7 0.00 0.00 0.00 53 1009.5
20260905193503 35 299 1.6 3.2 0.00 0.00 0.00 55 1009.5
20260905193003 35 319 1.6 4.8 0.00 0.00 0.00 55 1009.6
20260905192503 35 304 1.6 4.8 0.00 0.00 0.00 56 1009.7
20260905192003 35 89 0.0 11.3 0.00 0.00 0.00 55 1009.6
20260905191504 35 13 1.6 8.0 0.00 0.00 0.00 56 1009.7
20260905191003 35 324 1.6 8.0 0.00 0.00 0.00 57 1009.8
20260905190503 35 74 4.8 9.7 0.00 0.00 0.00 54 1009.9
20260905190004 35 41 1.6 4.8 0.00 0.00 0.00 55 1009.9
20260905185503 34 29 1.6 3.2 0.00 0.00 0.00 58 1010.1
20260905185004 34 47 0.0 3.2 0.00 0.00 0.00 56 1010.2
20260905184503 34 24 1.6 4.8 0.00 0.00 0.00 56 1010.3
20260905184003 35 11 3.2 8.0 0.00 0.00 0.00 55 1010.3
20260905183504 35 297 1.6 3.2 0.00 0.00 0.00 54 1010.3
20260905183004 35 35 1.6 4.8 0.00 0.00 0.00 55 1010.4
20260905182503 35 90 3.2 14.5 0.00 0.00 0.00 55 1010.4
20260905181503 35 74 4.8 9.7 0.00 0.00 0.00 54 1010.6
20260905181003 34 56 4.8 12.9 0.00 0.00 0.00 57 1010.7
20260905180503 34 58 4.8 16.1 0.00 0.00 0.00 55 1010.7
20260905180003 34 105 1.6 4.8 0.00 0.00 0.00 56 1010.7
20260905175503 34 72 6.4 12.9 0.00 0.00 0.00 54 1010.8
20260905175003 34 139 1.6 8.0 0.00 0.00 0.00 56 1010.8
20260905173503 33 172 3.2 4.8 0.00 0.00 0.00 56 1010.9
20260905173004 33 168 1.6 4.8 0.00 0.00 0.00 57 1011.0
20260905172503 33 165 3.2 4.8 0.00 0.00 0.00 56 1011.0
20260905172003 33 163 4.8 4.8 0.00 0.00 0.00 57 1011.0
20260905171503 33 227 1.6 4.8 0.00 0.00 0.00 61 1011.0
20260905170004 33 222 1.6 4.8 0.00 0.00 0.00 62 1011.1
20260905165504 33 169 3.2 4.8 0.00 0.00 0.00 62 1011.2
20260905165003 33 172 1.6 4.8 0.00 0.00 0.00 63 1011.3
20260905164504 33 177 1.6 4.8 0.00 0.00 0.00 66 1011.5
20260905164004 32 168 1.6 4.8 0.00 0.00 0.00 65 1011.5
20260905163504 32 165 8.0 11.3 0.00 0.00 0.00 63 1011.6
20260905162503 33 218 3.2 4.8 0.00 0.00 0.00 64 1011.7
20260905162003 33 224 3.2 8.0 0.00 0.00 0.00 62 1011.9
20260905161504 33 181 0.0 3.2 0.00 0.00 0.00 63 1011.9
20260905161003 32 220 1.6 4.8 0.00 0.00 0.00 63 1011.9
20260905160503 32 221 0.0 3.2 0.00 0.00 0.00 67 1011.9
20260905160003 32 226 1.6 4.8 0.00 0.00 0.00 64 1012.0
20260905155503 32 186 0.0 4.8 0.00 0.00 0.00 65 1012.0
20260905155004 32 218 1.6 3.2 0.00 0.00 0.00 65 1012.0
20260905154503 32 232 1.6 3.2 0.00 0.00 0.00 66 1012.0
20260905154004 31 231 0.0 3.2 0.00 0.00 0.00 68 1012.1
20260905153504 31 235 1.6 4.8 0.00 0.00 0.00 69 1012.1
20260905153004 31 235 1.6 4.8 0.00 0.00 0.00 72 1012.1
20260905152504 31 227 1.6 4.8 0.00 0.00 0.00 68 1012.1
20260905152004 31 212 3.2 4.8 0.00 0.00 0.00 66 1012.1
20260905151504 31 232 0.0 4.8 0.00 0.00 0.00 70 1012.1
20260905151004 31 230 0.0 0.0 0.00 0.00 0.00 70 1012.1
20260905150503 31 232 1.6 4.8 0.00 0.00 0.00 70 1012.0
20260905150003 31 229 0.0 1.6 0.00 0.00 0.00 69 1012.1
20260905145003 30 215 0.0 1.6 0.00 0.00 0.00 70 1012.2
20260905144503 30 235 0.0 3.2 0.00 0.00 0.00 72 1012.1
20260905144004 30 236 1.6 3.2 0.00 0.00 0.00 74 1012.2
20260905143504 31 227 1.6 3.2 0.00 0.00 0.00 71 1012.1
20260905143003 32 224 0.0 0.0 0.00 0.00 0.00 70 1012.2
20260905142504 32 223 0.0 0.0 0.00 0.00 0.00 75 1012.2
20260905142003 31 225 0.0 0.0 0.00 0.00 0.00 77 1012.3
20260905141503 31 225 0.0 0.0 0.00 0.00 0.00 79 1012.4
20260905141004 30 225 0.0 0.0 0.00 0.00 0.00 79 1012.4
20260905140503 30 224 0.0 0.0 0.00 0.00 0.00 79 1012.4
20260905135504 29 224 0.0 0.0 0.00 0.00 0.00 83 1012.5
20260905135003 28 224 0.0 0.0 0.00 0.00 0.00 84 1012.5
20260905134503 28 226 0.0 0.0 0.00 0.00 0.00 82 1012.6
20260905133504 28 224 0.0 0.0 0.00 0.00 0.00 82 1012.5
20260905132503 28 224 0.0 0.0 0.00 0.00 0.00 84 1012.3
20260905132003 27 224 0.0 0.0 0.00 0.00 0.00 87 1012.4
20260905131004 26 225 0.0 0.0 0.00 0.00 0.00 87 1012.6
20260905130504 26 226 0.0 0.0 0.00 0.00 0.00 89 1012.6
20260905130004 26 226 0.0 0.0 0.00 0.00 0.00 91 1012.6
20260905125003 25 226 0.0 0.0 0.00 0.00 0.00 94 1012.6
20260905124504 25 226 0.0 0.0 0.00 0.00 0.00 95 1012.6
20260905124004 24 226 0.0 0.0 0.00 0.00 0.00 97 1012.6
20260905123503 23 226 0.0 0.0 0.00 0.00 0.00 97 1012.6
20260905122503 23 226 0.0 0.0 0.00 0.00 0.00 97 1012.5
20260905122003 22 226 0.0 0.0 0.00 0.00 0.00 97 1012.4
20260905121504 22 219 0.0 0.0 0.00 0.00 0.00 97 1012.5
20260905121003 22 219 0.0 0.0 0.00 0.00 0.00 97 1012.5
20260905120503 22 219 0.0 0.0 0.00 0.00 0.00 97 1012.5
20260905120003 22 219 0.0 0.0 0.00 0.00 0.00 97 1012.5
20260905115503 22 219 0.0 0.0 0.00 0.00 0.00 96 1012.4
20260905115004 22 219 0.0 0.0 0.00 0.00 0.00 96 1012.3
20260905114503 22 219 0.0 0.0 0.00 0.00 0.00 97 1012.2
20260905114003 22 219 0.0 0.0 0.00 0.00 0.00 97 1012.1
20260905113503 22 219 0.0 0.0 0.00 0.00 0.00 97 1012.1
20260905113003 22 219 0.0 0.0 0.00 0.00 0.00 97 1012.1
20260905112504 22 219 0.0 0.0 0.00 0.00 0.00 97 1012.0
20260905111503 21 219 0.0 0.0 0.00 0.00 0.00 96 1011.8
20260905111004 22 219 0.0 0.0 0.00 0.00 0.00 96 1011.8
20260905110504 22 219 0.0 0.0 0.00 0.00 0.00 96 1011.7
20260905105503 22 219 0.0 0.0 0.00 0.00 0.00 96 1011.5
20260905105003 22 219 0.0 0.0 0.00 0.00 0.00 96 1011.5
20260905104503 22 219 0.0 0.0 0.00 0.00 0.00 96 1011.4
20260905104004 22 219 0.0 1.6 0.00 0.00 0.00 96 1011.4
20260905103504 22 213 0.0 0.0 0.00 0.00 0.00 96 1011.4
20260905103003 22 214 0.0 0.0 0.00 0.00 0.00 96 1011.3
20260905102504 22 214 0.0 0.0 0.00 0.00 0.00 96 1011.4
20260905102003 22 213 0.0 0.0 0.00 0.00 0.00 96 1011.4
20260905101504 22 213 0.0 0.0 0.00 0.00 0.00 96 1011.5
20260905101003 22 214 0.0 0.0 0.00 0.00 0.00 96 1011.4
20260905100504 22 214 0.0 0.0 0.00 0.00 0.00 96 1011.3
20260905100004 22 214 0.0 0.0 0.00 0.00 0.00 96 1011.3
20260905095504 22 213 0.0 0.0 0.00 0.00 0.00 96 1011.4
20260905095004 22 213 0.0 0.0 0.00 0.00 0.00 96 1011.4
20260905094504 22 227 0.0 0.0 0.00 0.00 0.00 96 1011.3
20260905094004 22 227 0.0 0.0 0.00 0.00 0.00 96 1011.2
20260905093503 22 227 0.0 0.0 0.00 0.00 0.00 96 1011.1
20260905093003 22 227 0.0 0.0 0.00 0.00 0.00 96 1011.1
20260905092003 22 227 0.0 0.0 0.00 0.00 0.00 96 1011.0
20260905091003 22 226 0.0 1.6 0.00 0.00 0.00 96 1011.0
20260905090503 22 226 0.0 0.0 0.00 0.00 0.00 96 1011.1
20260905090004 22 226 0.0 0.0 0.00 0.00 0.00 96 1011.1
20260905085503 22 226 0.0 0.0 0.00 0.00 0.00 96 1011.2
20260905084504 22 226 0.0 0.0 0.00 0.00 0.00 96 1011.1
20260905084004 22 226 0.0 0.0 0.00 0.00 0.00 95 1011.0
20260905083503 22 226 0.0 0.0 0.00 0.00 0.00 95 1011.1
20260905082503 22 226 0.0 0.0 0.00 0.00 0.00 95 1011.1
20260905081504 22 229 0.0 1.6 0.00 0.00 0.00 95 1011.1
20260905081003 22 229 0.0 1.6 0.00 0.00 0.00 95 1011.1
20260905080503 22 229 0.0 0.0 0.00 0.00 0.00 95 1011.0
20260905075504 22 229 0.0 1.6 0.00 0.00 0.00 95 1010.9
20260905074004 22 229 0.0 0.0 0.00 0.00 0.00 95 1010.9
20260905073504 23 229 0.0 0.0 0.00 0.00 0.00 95 1011.0
20260905073003 23 229 0.0 0.0 0.00 0.00 0.00 95 1011.0
20260905072503 23 229 0.0 0.0 0.00 0.00 0.00 95 1011.0
20260905072004 23 229 0.0 0.0 0.00 0.00 0.00 95 1011.0
20260905071503 23 229 0.0 1.6 0.00 0.00 0.00 96 1011.0
20260905071003 23 229 0.0 1.6 0.00 0.00 0.00 95 1011.0
20260905070504 22 229 0.0 0.0 0.00 0.00 0.00 95 1010.9
20260905070003 22 229 0.0 0.0 0.00 0.00 0.00 95 1010.9
20260905065503 22 229 0.0 0.0 0.00 0.00 0.00 95 1010.9
20260905065003 23 229 0.0 0.0 0.00 0.00 0.00 95 1011.0
20260905064504 23 229 0.0 0.0 0.00 0.00 0.00 95 1011.1
20260905064004 23 229 0.0 0.0 0.00 0.00 0.00 95 1011.2
20260905063503 23 229 0.0 0.0 0.00 0.00 0.00 95 1011.2
20260905062503 23 229 0.0 0.0 0.00 0.00 0.00 94 1011.4
20260905062003 23 229 0.0 0.0 0.00 0.00 0.00 94 1011.5
20260905061504 23 229 0.0 0.0 0.00 0.00 0.00 94 1011.5
20260905061004 23 229 0.0 0.0 0.00 0.00 0.00 94 1011.6
20260905060503 23 229 0.0 0.0 0.00 0.00 0.00 94 1011.5
20260905060003 23 229 0.0 0.0 0.00 0.00 0.00 94 1011.6
20260905055503 23 229 0.0 0.0 0.00 0.00 0.00 94 1011.6
20260905055004 23 229 0.0 0.0 0.00 0.00 0.00 94 1011.5
20260905054504 23 229 0.0 0.0 0.00 0.00 0.00 93 1011.5
20260905054003 23 229 0.0 0.0 0.00 0.00 0.00 93 1011.4
20260905053503 23 229 0.0 0.0 0.00 0.00 0.00 93 1011.4
20260905053003 23 229 0.0 0.0 0.00 0.00 0.00 93 1011.5